Torna al catalogo

METEOR 1-19

AttivoMeteoPO
NORAD 7490·PAYLOAD·🇷🇺 Russia

Lanciato Oct 28, 1974 da Plesetsk Cosmodrome

Loading…

Prossimi Passaggi (prossime 24 ore)

TLE

AggiornatoSource: Space-Track

Epoca: Sep 14, 2026, 08:36 UTC

1 07490U 74083A   26257.35885543  .00000035  00000-0  12331-4 0  9997
2 07490  81.1873  50.4347 0030054 188.9319 171.1322 14.10586727667450

Traccia METEOR 1-19 in tempo reale con AllMySat

Download on the App Store